Location: Unspecified
(35.7250°N, 0.0000°E)
Time: 01:01:17
(UTC+00:00)

Vanguard 1 - Pass Details

Date: 04 July 2019
Orbit: 653 x 3830 km, 34.3° (Epoch: 20 July)

Event Time Altitude Azimuth Distance (km) Brightness Sun altitude
Rises 19:55:31 0° 197° (SSW) 6,601 14.1 -7.0°
Reaches altitude 10° 20:00:25 10° 187° (S) 5,991 13.8 -7.8°
Maximum altitude 20:16:42 31° 134° (SE) 5,259 13.2 -10.5°
Drops below altitude 10° 20:34:50 10° 83° (E) 6,770 13.9 -13.3°
Sets 20:40:42 0° 74° (ENE) 7,557 14.3 -14.2°
